Location: Baia Mare
(47.6567°N, 23.5850°E)
Time: 06:56:52
(UTC+03:00)

ISS - Pass Details

Date: 24 March 2020
Orbit: 417 x 423 km, 51.6° (Epoch: 29 March)

Event Time Altitude Azimuth Distance (km) Brightness Sun altitude
Rises 20:50:51 0° 275° (W) 2,359 1.2 -21.1°
Reaches altitude 10° 20:53:01 10° 283° (WNW) 1,496 0.1 -21.4°
Maximum altitude 20:56:13 41° 355° (N) 624 -2.7 -21.9°
Enters shadow 20:56:19 41° 0° (N) 625 -2.7 -21.9°
